Kaltag, AK

5:53 PM AKDT on April 28, 2017 (GMT -0800)
Kaltag

Weather History for PAKV - November, 2013

Change the Weather History Date:

Wednesday, November 20, 2013

  Actual Average (PAGA) Record (PAGA)
Temperature  
Mean Temperature -14 °F -  
Max Temperature -5 °F 11 °F 41 °F (1967)
Min Temperature -20 °F -2 °F -42 °F (1973)
Degree Days  
Heating Degree Days 78    
Moisture  
Dew Point -21 °F    
Average Humidity 77    
Maximum Humidity 82    
Minimum Humidity 72    
Precipitation  
Precipitation 0.00 in - - ()
Sea Level Pressure  
Sea Level Pressure 30.35 in    
Wind  
Wind Speed 4 mph (SW)    
Max Wind Speed 14 mph    
Max Gust Speed 22 mph    
Visibility 10 miles    
Events      
Averages and records for this station are not official NWS values.
T = Trace of Precipitation, MM = Missing Value Source: NWS Daily Summary

Daily Weather History Graph

Daily Weather History Graph

Search for Another Location

Airport or City:

Trip Planner

Search our weather history database for the weather conditions in past years. The results will help you decide how hot, cold, wet, or windy it might be!

Date:

Astronomy

Nov. 20, 2013 Rise Set
Actual Time 10:23 AM AKST 4:17 PM AKST
Civil Twilight 9:19 AM AKST 5:21 PM AKST
Nautical Twilight 8:16 AM AKST 6:24 PM AKST
Astronomical Twilight 7:18 AM AKST 7:21 PM AKST
Moon 7:12 PM AKST (11/20) 12:57 PM AKST (11/20)
Length of Visible Light 8h 02m
Length of Day
5h 54m
Waning Gibbous, 90% of the Moon is Illuminated
Nov 20
Waning Gibbous
Nov 25
Last Quarter
Dec 2
New
Dec 9
First Quarter
Dec 17
Full

Hourly Weather History & Observations

Time (AKST) Temp. Windchill Dew Point Humidity Pressure Visibility Wind Dir Wind Speed Gust Speed Precip Events Conditions
12:53 AM -18.0 °F -33.0 °F -23.1 °F 78% 30.35 in 10.0 mi SW 5.8 mph - N/A   Clear
1:53 AM -18.0 °F -30.9 °F -23.1 °F 78% 30.36 in 10.0 mi SW 4.6 mph - N/A   Clear
3:53 AM -18.9 °F -29.5 °F -24.0 °F 78% 30.36 in 10.0 mi SW 3.5 mph - N/A   Clear
4:53 AM -20.0 °F -30.7 °F -25.1 °F 78% 30.36 in 10.0 mi SW 3.5 mph - N/A   Clear
5:53 AM -20.0 °F -33.3 °F -25.1 °F 78% 30.35 in 10.0 mi SW 4.6 mph - N/A   Clear
6:53 AM -20.0 °F -33.3 °F -25.1 °F 78% 30.36 in 10.0 mi SW 4.6 mph - N/A   Clear
7:53 AM -20.0 °F -33.3 °F -26.0 °F 74% 30.37 in 10.0 mi SW 4.6 mph - N/A   Clear
8:53 AM -20.9 °F -34.3 °F -26.0 °F 77% 30.37 in 10.0 mi SW 4.6 mph - N/A   Clear
9:53 AM -20.9 °F -31.7 °F -26.0 °F 77% 30.37 in 10.0 mi SW 3.5 mph - N/A   Clear
10:53 AM -20.0 °F - -25.1 °F 78% 30.38 in 10.0 mi Calm Calm - N/A   Clear
11:53 AM -20.0 °F - -25.1 °F 78% 30.38 in 10.0 mi Calm Calm - N/A   Clear
12:53 PM -18.0 °F -28.5 °F -23.1 °F 78% 30.38 in 10.0 mi SW 3.5 mph - N/A   Clear
1:53 PM -14.1 °F - -18.9 °F 79% 30.37 in 10.0 mi Calm Calm - N/A   Clear
2:53 PM -11.9 °F - -18.0 °F 74% 30.37 in 10.0 mi Calm Calm - N/A   Clear
3:53 PM -9.9 °F -19.2 °F -15.0 °F 78% 30.35 in 10.0 mi East 3.5 mph - N/A   Clear
4:53 PM -16.1 °F -26.2 °F -20.9 °F 79% 30.34 in 10.0 mi SW 3.5 mph - N/A   Clear
5:53 PM -18.9 °F -32.0 °F -24.0 °F 78% 30.35 in 10.0 mi SW 4.6 mph - N/A   Clear
6:53 PM -20.0 °F - -25.1 °F 78% 30.34 in 10.0 mi Calm Calm - N/A   Clear
7:53 PM -9.0 °F -22.3 °F -15.0 °F 75% 30.33 in 10.0 mi NE 5.8 mph - N/A   Clear
8:53 PM -9.9 °F -30.5 °F -14.1 °F 82% 30.32 in 10.0 mi NE 12.7 mph - N/A   Clear
9:53 PM -7.1 °F -19.9 °F -13.0 °F 75% 30.31 in 10.0 mi NE 5.8 mph - N/A   Clear
10:53 PM -7.1 °F -23.9 °F -13.0 °F 75% 30.30 in 10.0 mi ENE 9.2 mph - N/A   Clear
11:53 PM -5.1 °F -25.1 °F -11.9 °F 72% 30.28 in 10.0 mi NE 13.8 mph 21.9 mph N/A   Clear